Track COSMOS 564 now! 10-day predictions COSMOS 564 is classified as:
1 6675U 73037A 19052.96293993 -.00000025 +00000-0 -47844-4 0 9991 2 6675 074.0207 354.6470 0055760 292.8916 130.8700 12.56563054096602